FW7101 Weather Reports


time (UTC)temp
F
wind
direction
speed
knots
gust
knots
rain 1hr
in
rain 24hr
in
rain mn
in
humidity
%
barometer
mb
20260503014553 58 9 2.6 7.0 0.00 0.00 0.00 84 1012.0
20260503013004 58 9 2.6 7.0 0.00 0.00 0.00 84 1012.0
20260503004528 59 9 3.5 6.1 0.00 0.00 0.00 82 1012.1
20260503003057 59 9 4.3 8.7 0.00 0.00 0.00 81 1012.1
20260502224506 59 9 4.3 8.7 0.00 0.00 0.00 82 1013.0
20260502223040 59 9 3.5 8.7 0.00 0.00 0.00 83 1013.2
20260502221601 59 9 4.3 7.8 0.00 0.00 0.00 80 1013.4
20260502220031 59 9 4.3 7.8 0.00 0.00 0.00 80 1013.5
20260502214503 59 9 4.3 8.7 0.00 0.00 0.00 81 1013.9
20260502213033 59 9 3.5 8.7 0.00 0.00 0.00 81 1014.1
20260502211636 60 9 3.5 7.0 0.00 0.00 0.00 79 1014.1
20260502210034 60 9 4.3 8.7 0.00 0.00 0.00 78 1014.3
20260502204600 61 9 3.5 7.0 0.00 0.00 0.00 77 1014.3
20260502203030 61 9 5.2 7.8 0.00 0.00 0.00 76 1014.4
20260502201556 60 9 1.7 5.2 0.00 0.00 0.00 77 1014.4
20260502200015 58 9 0.0 6.1 0.00 0.00 0.00 83 1014.5
20260502194551 58 9 2.6 5.2 0.00 0.00 0.00 83 1015.0
20260502193013 57 9 1.7 5.2 0.00 0.00 0.00 85 1015.1
20260502191533 56 9 1.7 5.2 0.00 0.00 0.00 87 1015.3
20260502190004 56 9 1.7 4.3 0.00 0.00 0.00 89 1015.3
20260502184549 56 9 0.9 5.2 0.00 0.00 0.00 90 1015.6
20260502183005 55 9 3.5 7.0 0.00 0.00 0.00 90 1015.5
20260502181537 55 9 3.5 7.0 0.00 0.00 0.00 90 1015.5